Theta_e
325 326 326 326 326 324 324 324 325 324 324 323 322 321 321 320 320 320 319 318 317 317
320 323 325 326 326 326 325 325 325 324 324 324 323 322 321 321 321 321 320 319 319 318
310 317 321 324 325 325 326 325 324 324 324 324 324 323 323 322 322 321 321 321 319 319
304 308 313 318 321 324 325 326 324 324 324 324 324 324 323 322 322 321 321 321 320 319
303 305 307 310 314 319 322 325 325 324 324 324 324 324 323 322 321 321 320 320 319 318
301 302 304 306 309 314 316 319 323 323 323 323 323 323 323 322 322 321 321 321 319 319
298 299 300 302 304 307 311 314 317 320 321 322 323 323 323 322 321 321 321 320 320 319
295 295 296 296 298 299 302 305 310 314 317 319 320 321 321 321 321 320 319 318 318 318
292 291 292 292 293 293 295 297 301 304 308 313 316 309 305 312 319 317 316 316 315 315
289 288 288 289 290 290 292 294 295 297 300 304 308 304 303 300 314 315 315 315 312 301
286 285 285 287 288 289 290 290 292 294 297 299 302 301 300 298 308 313 312 312 307 306
283 280 281 283 285 287 288 289 289 291 292 293 295 297 297 297 299 300 299 302 304 304
278 278 279 282 284 286 287 287 288 288 290 290 292 295 295 296 296 295 295 291 292 289
276 276 278 283 284 285 286 286 287 287 289 290 291 292 294 295 295 296 294 293 290 289
Wind_Speed
13 11 11 13 11 9 11 11 13 13 15 17 16 14 14 12 12 14 14 18 15 12
8 11 13 14 13 11 12 11 13 13 15 17 16 16 15 13 16 15 15 16 16 14
6 7 9 11 13 13 13 14 14 13 15 16 16 16 17 15 17 17 14 13 16 15
7 6 6 7 10 11 13 14 13 15 16 16 17 18 17 18 18 18 17 16 15 16
10 8 7 7 9 9 10 12 13 13 16 16 17 17 18 18 16 18 17 17 16 16
15 13 13 12 11 10 10 11 12 12 15 16 16 17 17 18 19 19 19 17 17 17
14 15 14 14 13 12 11 12 12 12 14 15 15 15 17 17 18 19 18 17 17 17
14 13 14 14 14 13 12 11 12 13 13 13 13 12 15 16 17 18 17 15 16 16
15 15 14 14 15 14 13 12 11 12 12 14 11 14 16 16 15 16 15 14 14 14
13 16 17 15 14 13 14 13 12 12 12 14 13 13 15 15 13 12 13 15 12 7
13 15 17 17 17 16 14 14 13 13 12 15 13 13 14 15 13 15 13 13 12 13
14 18 18 18 17 15 15 15 14 13 14 13 16 18 14 11 8 11 11 10 11 12
17 18 18 18 18 16 15 16 13 14 13 14 16 18 16 14 7 11 9 6 7 11
17 19 18 18 17 18 19 19 17 18 15 15 14 16 19 19 11 10 8 8 7 6
Wind_Direction
233 232 228 231 229 227 227 227 225 217 222 224 226 224 223 222 223 221 222 225 221 224
258 244 239 236 231 229 227 231 228 219 219 224 223 224 221 224 228 226 226 227 227 224
282 271 261 253 245 235 232 231 227 221 219 222 223 222 223 226 231 230 227 228 228 226
314 300 283 268 265 252 241 236 230 227 226 224 223 223 225 226 230 231 231 230 232 233
324 321 311 295 283 276 263 251 241 232 232 231 230 227 225 225 225 229 229 229 228 229
344 341 335 326 317 298 285 273 259 245 240 236 234 230 228 225 226 226 227 226 224 225
347 338 334 329 324 316 307 296 280 263 251 249 245 236 232 230 230 230 229 225 223 223
336 335 331 332 329 322 314 304 295 287 274 257 250 244 239 235 234 232 229 225 222 222
334 332 330 327 324 318 313 304 299 291 278 273 264 245 230 234 234 230 228 225 222 224
330 328 328 323 317 310 308 305 295 292 288 276 267 253 240 229 242 237 228 227 224 206
330 328 322 319 317 314 311 307 299 291 286 288 278 262 245 237 240 244 239 226 213 211
334 321 318 314 310 309 305 302 296 288 285 280 281 274 244 230 238 245 242 226 213 213
319 316 312 308 307 308 301 295 296 287 275 271 273 271 249 232 233 243 240 232 225 209
317 312 303 305 308 308 304 301 298 293 288 281 275 276 265 237 238 238 236 227 218 208